Location: Unspecified
(44.8339°N, 0.0000°E)
Time: 10:12:57
(UTC+00:00)

SL-14 Deb - Visible Passes

Search period start: 04 April 2026 00:00
Search period end: 14 April 2026 00:00
Orbit: 1406 x 1469 km, 82.6° (Epoch: 29 March)

Date Brightness Start Highest point End Pass type
(mag) Time Alt. Az. Time Alt. Az. Time Alt. Az.
4 Apr ? 04:07:26 10° N 04:14:11 26° ENE 04:20:49 10° ESE visible
4 Apr ? 18:56:10 10° SSW 19:04:48 78° W 19:13:26 10° N visible
4 Apr ? 20:56:26 10° W 21:01:55 18° WNW 21:07:26 10° NNW visible
5 Apr ? 03:05:47 10° NNE 03:08:06 11° NE 03:10:25 10° ENE visible
5 Apr ? 04:57:48 10° N 05:06:03 53° ENE 05:14:09 10° SSE visible
5 Apr ? 19:48:27 10° SW 19:56:19 38° WNW 20:04:11 10° N visible
6 Apr ? 03:54:04 10° N 04:00:47 25° ENE 04:07:24 10° ESE visible
6 Apr ? 20:43:02 10° W 20:48:33 18° WNW 20:54:03 10° NNW visible
7 Apr ? 02:52:30 10° NE 02:54:42 11° NE 02:56:53 10° ENE visible
7 Apr ? 04:44:26 10° N 04:52:40 53° ENE 05:00:45 10° SSE visible
7 Apr ? 19:35:04 10° SW 19:42:56 38° WNW 19:50:48 10° N visible
8 Apr ? 03:40:42 10° N 03:47:23 25° ENE 03:53:58 10° ESE visible
8 Apr ? 20:29:38 10° W 20:35:09 18° WNW 20:40:40 10° NNW visible
9 Apr ? 02:39:13 10° NE 02:41:18 11° NE 02:43:22 10° ENE visible
9 Apr ? 04:31:03 10° N 04:39:16 53° ENE 04:47:21 10° SSE visible
9 Apr ? 19:21:41 10° SW 19:29:34 38° WNW 19:37:25 10° N visible
10 Apr ? 03:27:20 10° N 03:33:59 25° ENE 03:40:32 10° ESE visible
10 Apr ? 20:16:14 10° W 20:21:45 18° WNW 20:27:18 10° NNW visible
11 Apr ? 02:25:56 10° NE 02:27:53 11° NE 02:29:50 10° ENE visible
11 Apr ? 04:17:41 10° N 04:25:52 52° ENE 04:33:56 10° SSE visible
11 Apr ? 19:08:18 10° SW 19:16:11 39° WNW 19:24:02 10° N visible
12 Apr ? 03:13:57 10° N 03:20:34 25° ENE 03:27:07 10° ESE visible
12 Apr ? 20:02:49 10° W 20:08:22 18° WNW 20:13:55 10° NNW visible
13 Apr ? 02:12:40 10° NE 02:14:29 11° NE 02:16:17 10° ENE visible
13 Apr ? 04:04:18 10° N 04:12:28 52° ENE 04:20:32 10° SSE visible
